"Time","Value","Approval","myLocation"
"2023-05-06 00:00",12.5874,"Approved","OW286"
"2023-05-06 01:00",12.5931,"Approved","OW286"
"2023-05-06 02:00",12.5984,"Approved","OW286"
"2023-05-06 03:00",12.6048,"Approved","OW286"
"2023-05-06 04:00",12.5282,"Approved","OW286"
"2023-05-06 05:00",12.5027,"Approved","OW286"
"2023-05-06 06:00",12.4902,"Approved","OW286"
"2023-05-06 07:00",12.478,"Approved","OW286"
"2023-05-06 08:00",12.5616,"Approved","OW286"
"2023-05-06 09:00",12.5716,"Approved","OW286"
"2023-05-06 10:00",12.5772,"Approved","OW286"
"2023-05-06 11:00",12.5825,"Approved","OW286"
"2023-05-06 12:00",12.5261,"Approved","OW286"
"2023-05-06 13:00",12.4849,"Approved","OW286"
"2023-05-06 14:00",12.4701,"Approved","OW286"
"2023-05-06 15:00",12.4584,"Approved","OW286"
"2023-05-06 16:00",12.4454,"Approved","OW286"
"2023-05-06 17:00",12.461,"Approved","OW286"
"2023-05-06 18:00",12.435,"Approved","OW286"
"2023-05-06 19:00",12.5163,"Approved","OW286"
"2023-05-06 20:00",12.5259,"Approved","OW286"
"2023-05-06 21:00",12.532,"Approved","OW286"
"2023-05-06 22:00",12.5376,"Approved","OW286"
"2023-05-06 23:00",12.542,"Approved","OW286"
"2023-05-07 00:00",12.5467,"Approved","OW286"
"2023-05-07 01:00",12.5518,"Approved","OW286"
"2023-05-07 02:00",12.5571,"Approved","OW286"
"2023-05-07 03:00",12.5622,"Approved","OW286"
"2023-05-07 04:00",12.5663,"Approved","OW286"
"2023-05-07 05:00",12.5694,"Approved","OW286"
"2023-05-07 06:00",12.4847,"Approved","OW286"
"2023-05-07 07:00",12.4609,"Approved","OW286"
"2023-05-07 08:00",12.4452,"Approved","OW286"
"2023-05-07 09:00",12.4321,"Approved","OW286"
"2023-05-07 10:00",12.509,"Approved","OW286"
"2023-05-07 11:00",12.5218,"Approved","OW286"
"2023-05-07 12:00",12.5286,"Approved","OW286"
"2023-05-07 13:00",12.5334,"Approved","OW286"
"2023-05-07 14:00",12.5088,"Approved","OW286"
"2023-05-07 15:00",12.4389,"Approved","OW286"
"2023-05-07 16:00",12.4988,"Approved","OW286"
"2023-05-07 17:00",12.5175,"Approved","OW286"
"2023-05-07 18:00",12.5236,"Approved","OW286"
"2023-05-07 19:00",12.451,"Approved","OW286"
"2023-05-07 20:00",12.4233,"Approved","OW286"
"2023-05-07 21:00",12.4091,"Approved","OW286"
"2023-05-07 22:00",12.3979,"Approved","OW286"
"2023-05-07 23:00",12.4864,"Approved","OW286"
"2023-05-08 00:00",12.4978,"Approved","OW286"
"2023-05-08 01:00",12.5041,"Approved","OW286"
"2023-05-08 02:00",12.5092,"Approved","OW286"
"2023-05-08 03:00",12.5145,"Approved","OW286"
"2023-05-08 04:00",12.5195,"Approved","OW286"
"2023-05-08 05:00",12.4369,"Approved","OW286"
"2023-05-08 06:00",12.4129,"Approved","OW286"
"2023-05-08 07:00",12.3993,"Approved","OW286"
"2023-05-08 08:00",12.3856,"Approved","OW286"
"2023-05-08 09:00",12.4046,"Approved","OW286"
"2023-05-08 10:00",12.4689,"Approved","OW286"
"2023-05-08 11:00",12.4779,"Approved","OW286"
"2023-05-08 12:00",12.4853,"Approved","OW286"
"2023-05-08 13:00",12.4918,"Approved","OW286"
"2023-05-08 14:00",12.4058,"Approved","OW286"
"2023-05-08 15:00",12.383,"Approved","OW286"
"2023-05-08 16:00",12.4502,"Approved","OW286"
"2023-05-08 17:00",12.4687,"Approved","OW286"
"2023-05-08 18:00",12.476,"Approved","OW286"
"2023-05-08 19:00",12.4817,"Approved","OW286"
"2023-05-08 20:00",12.4155,"Approved","OW286"
"2023-05-08 21:00",12.3828,"Approved","OW286"
"2023-05-08 22:00",12.3684,"Approved","OW286"
"2023-05-08 23:00",12.4537,"Approved","OW286"
"2023-05-09 00:00",12.4644,"Approved","OW286"
"2023-05-09 01:00",12.4711,"Approved","OW286"
"2023-05-09 02:00",12.4784,"Approved","OW286"
"2023-05-09 03:00",12.4844,"Approved","OW286"
"2023-05-09 04:00",12.4904,"Approved","OW286"
"2023-05-09 05:00",12.4957,"Approved","OW286"
"2023-05-09 06:00",12.4983,"Approved","OW286"
"2023-05-09 07:00",12.403,"Approved","OW286"
"2023-05-09 08:00",12.384,"Approved","OW286"
"2023-05-09 09:00",12.3708,"Approved","OW286"
"2023-05-09 10:00",12.3589,"Approved","OW286"
"2023-05-09 11:00",12.4365,"Approved","OW286"
"2023-05-09 12:00",12.4524,"Approved","OW286"
"2023-05-09 13:00",12.4608,"Approved","OW286"
"2023-05-09 14:00",12.4675,"Approved","OW286"
"2023-05-09 15:00",12.4731,"Approved","OW286"
"2023-05-09 16:00",12.403,"Approved","OW286"
"2023-05-09 17:00",12.3704,"Approved","OW286"
"2023-05-09 18:00",12.3543,"Approved","OW286"
"2023-05-09 19:00",12.4197,"Approved","OW286"
"2023-05-09 20:00",12.4408,"Approved","OW286"
"2023-05-09 21:00",12.4491,"Approved","OW286"
"2023-05-09 22:00",12.4559,"Approved","OW286"
"2023-05-09 23:00",12.461,"Approved","OW286"
"2023-05-10 00:00",12.4667,"Approved","OW286"
"2023-05-10 01:00",12.4725,"Approved","OW286"
"2023-05-10 02:00",12.4789,"Approved","OW286"
"2023-05-10 03:00",12.4852,"Approved","OW286"
"2023-05-10 04:00",12.3932,"Approved","OW286"
"2023-05-10 05:00",12.3736,"Approved","OW286"
"2023-05-10 06:00",12.3582,"Approved","OW286"
"2023-05-10 07:00",12.346,"Approved","OW286"
"2023-05-10 08:00",12.4365,"Approved","OW286"
"2023-05-10 09:00",12.447,"Approved","OW286"
"2023-05-10 10:00",12.4536,"Approved","OW286"
"2023-05-10 11:00",12.4607,"Approved","OW286"
"2023-05-10 12:00",12.4048,"Approved","OW286"
"2023-05-10 13:00",12.3635,"Approved","OW286"
"2023-05-10 14:00",12.3475,"Approved","OW286"
"2023-05-10 15:00",12.3341,"Approved","OW286"
"2023-05-10 16:00",12.4124,"Approved","OW286"
"2023-05-10 17:00",12.4257,"Approved","OW286"
"2023-05-10 18:00",12.4331,"Approved","OW286"
"2023-05-10 19:00",12.4394,"Approved","OW286"
"2023-05-10 20:00",12.4448,"Approved","OW286"
"2023-05-10 21:00",12.4501,"Approved","OW286"
"2023-05-10 22:00",12.4549,"Approved","OW286"
"2023-05-10 23:00",12.4604,"Approved","OW286"
"2023-05-11 00:00",12.3694,"Approved","OW286"
"2023-05-11 01:00",12.3478,"Approved","OW286"
"2023-05-11 02:00",12.4098,"Approved","OW286"
"2023-05-11 03:00",12.4328,"Approved","OW286"
"2023-05-11 04:00",12.4432,"Approved","OW286"
"2023-05-11 05:00",12.4508,"Approved","OW286"
"2023-05-11 06:00",12.4565,"Approved","OW286"
"2023-05-11 07:00",12.4616,"Approved","OW286"
"2023-05-11 08:00",12.4677,"Approved","OW286"
"2023-05-11 09:00",12.4727,"Approved","OW286"
"2023-05-11 10:00",12.4786,"Approved","OW286"
"2023-05-11 11:00",12.4835,"Approved","OW286"
"2023-05-11 12:00",12.488,"Approved","OW286"
"2023-05-11 13:00",12.4116,"Approved","OW286"
"2023-05-11 14:00",12.3841,"Approved","OW286"
"2023-05-11 15:00",12.3663,"Approved","OW286"
"2023-05-11 16:00",12.351,"Approved","OW286"
"2023-05-11 17:00",12.4352,"Approved","OW286"
"2023-05-11 18:00",12.4448,"Approved","OW286"
"2023-05-11 19:00",12.454,"Approved","OW286"
"2023-05-11 20:00",12.4592,"Approved","OW286"
"2023-05-11 21:00",12.4632,"Approved","OW286"
"2023-05-11 22:00",12.4677,"Approved","OW286"
"2023-05-11 23:00",12.4736,"Approved","OW286"
"2023-05-12 00:00",12.4001,"Approved","OW286"
"2023-05-12 01:00",12.3732,"Approved","OW286"
"2023-05-12 02:00",12.3557,"Approved","OW286"
"2023-05-12 03:00",12.3416,"Approved","OW286"
"2023-05-12 04:00",12.426,"Approved","OW286"
"2023-05-12 05:00",12.4381,"Approved","OW286"
"2023-05-12 06:00",12.4459,"Approved","OW286"
"2023-05-12 07:00",12.4523,"Approved","OW286"
"2023-05-12 08:00",12.4586,"Approved","OW286"
"2023-05-12 09:00",12.4644,"Approved","OW286"
"2023-05-12 10:00",12.47,"Approved","OW286"
"2023-05-12 11:00",12.475,"Approved","OW286"
"2023-05-12 12:00",12.4797,"Approved","OW286"
"2023-05-12 13:00",12.4039,"Approved","OW286"
"2023-05-12 14:00",12.3753,"Approved","OW286"
"2023-05-12 15:00",12.3575,"Approved","OW286"
"2023-05-12 16:00",12.3424,"Approved","OW286"
"2023-05-12 17:00",12.4315,"Approved","OW286"
"2023-05-12 18:00",12.4393,"Approved","OW286"
"2023-05-12 19:00",12.4454,"Approved","OW286"
"2023-05-12 20:00",12.4197,"Approved","OW286"
"2023-05-12 21:00",12.3499,"Approved","OW286"
"2023-05-12 22:00",12.4077,"Approved","OW286"
"2023-05-12 23:00",12.4307,"Approved","OW286"
"2023-05-13 00:00",12.4364,"Approved","OW286"
"2023-05-13 01:00",12.4431,"Approved","OW286"
"2023-05-13 02:00",12.4495,"Approved","OW286"
"2023-05-13 03:00",12.455,"Approved","OW286"
"2023-05-13 04:00",12.4602,"Approved","OW286"
"2023-05-13 05:00",12.4666,"Approved","OW286"
"2023-05-13 06:00",12.4712,"Approved","OW286"
"2023-05-13 07:00",12.4759,"Approved","OW286"
"2023-05-13 08:00",12.4206,"Approved","OW286"
"2023-05-13 09:00",12.377,"Approved","OW286"
"2023-05-13 10:00",12.3586,"Approved","OW286"
"2023-05-13 11:00",12.3436,"Approved","OW286"
"2023-05-13 12:00",12.4323,"Approved","OW286"
"2023-05-13 13:00",12.4401,"Approved","OW286"
"2023-05-13 14:00",12.4462,"Approved","OW286"
"2023-05-13 15:00",12.4508,"Approved","OW286"
"2023-05-13 16:00",12.4562,"Approved","OW286"
"2023-05-13 17:00",12.4605,"Approved","OW286"
"2023-05-13 18:00",12.4634,"Approved","OW286"
"2023-05-13 19:00",12.4675,"Approved","OW286"
"2023-05-13 20:00",12.3743,"Approved","OW286"
"2023-05-13 21:00",12.3524,"Approved","OW286"
"2023-05-13 22:00",12.3367,"Approved","OW286"
"2023-05-13 23:00",12.4197,"Approved","OW286"
"2023-05-14 00:00",12.4284,"Approved","OW286"
"2023-05-14 01:00",12.4349,"Approved","OW286"
"2023-05-14 02:00",12.4396,"Approved","OW286"
"2023-05-14 03:00",12.4453,"Approved","OW286"
"2023-05-14 04:00",12.4514,"Approved","OW286"
"2023-05-14 05:00",12.4565,"Approved","OW286"
"2023-05-14 06:00",12.3819,"Approved","OW286"
"2023-05-14 07:00",12.3529,"Approved","OW286"
"2023-05-14 08:00",12.3363,"Approved","OW286"
"2023-05-14 09:00",12.4153,"Approved","OW286"
"2023-05-14 10:00",12.4264,"Approved","OW286"
"2023-05-14 11:00",12.4324,"Approved","OW286"
"2023-05-14 12:00",12.4373,"Approved","OW286"
"2023-05-14 13:00",12.4419,"Approved","OW286"
"2023-05-14 14:00",12.4466,"Approved","OW286"
"2023-05-14 15:00",12.4486,"Approved","OW286"
"2023-05-14 16:00",12.3585,"Approved","OW286"
"2023-05-14 17:00",12.3346,"Approved","OW286"
"2023-05-14 18:00",12.395,"Approved","OW286"
"2023-05-14 19:00",12.4132,"Approved","OW286"
"2023-05-14 20:00",12.4181,"Approved","OW286"
"2023-05-14 21:00",12.4229,"Approved","OW286"
"2023-05-14 22:00",12.427,"Approved","OW286"
"2023-05-14 23:00",12.3776,"Approved","OW286"
"2023-05-15 00:00",12.3278,"Approved","OW286"
"2023-05-15 01:00",12.3127,"Approved","OW286"
"2023-05-15 02:00",12.3785,"Approved","OW286"
"2023-05-15 03:00",12.3978,"Approved","OW286"
"2023-05-15 04:00",12.4045,"Approved","OW286"
"2023-05-15 05:00",12.4099,"Approved","OW286"
"2023-05-15 06:00",12.4137,"Approved","OW286"
"2023-05-15 07:00",12.4173,"Approved","OW286"
"2023-05-15 08:00",12.4217,"Approved","OW286"
"2023-05-15 09:00",12.4248,"Approved","OW286"
"2023-05-15 10:00",12.4277,"Approved","OW286"
"2023-05-15 11:00",12.4313,"Approved","OW286"
"2023-05-15 12:00",12.4342,"Approved","OW286"
"2023-05-15 13:00",12.3646,"Approved","OW286"
"2023-05-15 14:00",12.3293,"Approved","OW286"
"2023-05-15 15:00",12.31,"Approved","OW286"
"2023-05-15 16:00",12.2956,"Approved","OW286"
"2023-05-15 17:00",12.3816,"Approved","OW286"
"2023-05-15 18:00",12.3885,"Approved","OW286"
"2023-05-15 19:00",12.3921,"Approved","OW286"
"2023-05-15 20:00",12.3962,"Approved","OW286"
"2023-05-15 21:00",12.4011,"Approved","OW286"
"2023-05-15 22:00",12.331,"Approved","OW286"
"2023-05-15 23:00",12.2998,"Approved","OW286"
"2023-05-16 00:00",12.2828,"Approved","OW286"
"2023-05-16 01:00",12.3543,"Approved","OW286"
"2023-05-16 02:00",12.3699,"Approved","OW286"
"2023-05-16 03:00",12.3823,"Approved","OW286"
"2023-05-16 04:00",12.391,"Approved","OW286"
"2023-05-16 05:00",12.3972,"Approved","OW286"
"2023-05-16 06:00",12.3994,"Approved","OW286"
"2023-05-16 07:00",12.4048,"Approved","OW286"
"2023-05-16 08:00",12.4086,"Approved","OW286"
"2023-05-16 09:00",12.4113,"Approved","OW286"
"2023-05-16 10:00",12.4154,"Approved","OW286"
"2023-05-16 11:00",12.4185,"Approved","OW286"
"2023-05-16 12:00",12.4198,"Approved","OW286"
"2023-05-16 13:00",12.3319,"Approved","OW286"
"2023-05-16 14:00",12.3096,"Approved","OW286"
"2023-05-16 15:00",12.2914,"Approved","OW286"
"2023-05-16 16:00",12.3484,"Approved","OW286"
"2023-05-16 17:00",12.371,"Approved","OW286"
"2023-05-16 18:00",12.3771,"Approved","OW286"
"2023-05-16 19:00",12.3793,"Approved","OW286"
"2023-05-16 20:00",12.3095,"Approved","OW286"
"2023-05-16 21:00",12.2772,"Approved","OW286"
"2023-05-16 22:00",12.3308,"Approved","OW286"
"2023-05-16 23:00",12.3561,"Approved","OW286"
"2023-05-17 00:00",12.3613,"Approved","OW286"
"2023-05-17 01:00",12.366,"Approved","OW286"
"2023-05-17 02:00",12.3716,"Approved","OW286"
"2023-05-17 03:00",12.375,"Approved","OW286"
"2023-05-17 04:00",12.3805,"Approved","OW286"
"2023-05-17 05:00",12.3845,"Approved","OW286"
"2023-05-17 06:00",12.3882,"Approved","OW286"
"2023-05-17 07:00",12.3916,"Approved","OW286"
"2023-05-17 08:00",12.3936,"Approved","OW286"
"2023-05-17 09:00",12.397,"Approved","OW286"
"2023-05-17 10:00",12.3474,"Approved","OW286"
"2023-05-17 11:00",12.2962,"Approved","OW286"
"2023-05-17 12:00",12.2772,"Approved","OW286"
"2023-05-17 13:00",12.3497,"Approved","OW286"
"2023-05-17 14:00",12.3619,"Approved","OW286"
"2023-05-17 15:00",12.3668,"Approved","OW286"
"2023-05-17 16:00",12.3696,"Approved","OW286"
"2023-05-17 17:00",12.3735,"Approved","OW286"
"2023-05-17 18:00",12.3763,"Approved","OW286"
"2023-05-17 19:00",12.3798,"Approved","OW286"
"2023-05-17 20:00",12.3666,"Approved","OW286"
"2023-05-17 21:00",12.281,"Approved","OW286"
"2023-05-17 22:00",12.264,"Approved","OW286"
"2023-05-17 23:00",12.2496,"Approved","OW286"
"2023-05-18 00:00",12.3345,"Approved","OW286"
"2023-05-18 01:00",12.3441,"Approved","OW286"
"2023-05-18 02:00",12.3504,"Approved","OW286"
"2023-05-18 03:00",12.3563,"Approved","OW286"
"2023-05-18 04:00",12.3609,"Approved","OW286"
"2023-05-18 05:00",12.3653,"Approved","OW286"
"2023-05-18 06:00",12.3698,"Approved","OW286"
"2023-05-18 07:00",12.3731,"Approved","OW286"
"2023-05-18 08:00",12.3769,"Approved","OW286"
"2023-05-18 09:00",12.3803,"Approved","OW286"
"2023-05-18 10:00",12.3835,"Approved","OW286"
"2023-05-18 11:00",12.3866,"Approved","OW286"
"2023-05-18 12:00",12.3885,"Approved","OW286"
"2023-05-18 13:00",12.3074,"Approved","OW286"
"2023-05-18 14:00",12.2808,"Approved","OW286"
"2023-05-18 15:00",12.2623,"Approved","OW286"
"2023-05-18 16:00",12.321,"Approved","OW286"
"2023-05-18 17:00",12.3413,"Approved","OW286"
"2023-05-18 18:00",12.3469,"Approved","OW286"
"2023-05-18 19:00",12.3516,"Approved","OW286"
"2023-05-18 20:00",12.3546,"Approved","OW286"
"2023-05-18 21:00",12.2685,"Approved","OW286"
"2023-05-18 22:00",12.2459,"Approved","OW286"
"2023-05-18 23:00",12.3304,"Approved","OW286"
"2023-05-19 00:00",12.3389,"Approved","OW286"
"2023-05-19 01:00",12.3447,"Approved","OW286"
"2023-05-19 02:00",12.3498,"Approved","OW286"
"2023-05-19 03:00",12.3551,"Approved","OW286"
"2023-05-19 04:00",12.3189,"Approved","OW286"
"2023-05-19 05:00",12.2576,"Approved","OW286"
"2023-05-19 06:00",12.2404,"Approved","OW286"
"2023-05-19 07:00",12.3154,"Approved","OW286"
"2023-05-19 08:00",12.3301,"Approved","OW286"
"2023-05-19 09:00",12.3355,"Approved","OW286"
"2023-05-19 10:00",12.3419,"Approved","OW286"
"2023-05-19 11:00",12.3463,"Approved","OW286"
"2023-05-19 12:00",12.3503,"Approved","OW286"
"2023-05-19 13:00",12.3545,"Approved","OW286"
"2023-05-19 14:00",12.3584,"Approved","OW286"
"2023-05-19 15:00",12.3622,"Approved","OW286"
"2023-05-19 16:00",12.3651,"Approved","OW286"
"2023-05-19 17:00",12.3696,"Approved","OW286"
"2023-05-19 18:00",12.3118,"Approved","OW286"
"2023-05-19 19:00",12.2693,"Approved","OW286"
"2023-05-19 20:00",12.2801,"Approved","OW286"
"2023-05-19 21:00",12.2863,"Approved","OW286"
"2023-05-19 22:00",12.2918,"Approved","OW286"
"2023-05-19 23:00",12.2946,"Approved","OW286"
"2023-05-20 00:00",12.3003,"Approved","OW286"
"2023-05-20 01:00",12.3041,"Approved","OW286"
"2023-05-20 02:00",12.2146,"Approved","OW286"
"2023-05-20 03:00",12.1913,"Approved","OW286"
"2023-05-20 04:00",12.173,"Approved","OW286"
"2023-05-20 05:00",12.1595,"Approved","OW286"
"2023-05-20 06:00",12.2504,"Approved","OW286"
"2023-05-20 07:00",12.2582,"Approved","OW286"
"2023-05-20 08:00",12.2624,"Approved","OW286"
"2023-05-20 09:00",12.2679,"Approved","OW286"
"2023-05-20 10:00",12.2707,"Approved","OW286"
"2023-05-20 11:00",12.2722,"Approved","OW286"
"2023-05-20 12:00",12.275,"Approved","OW286"
"2023-05-20 13:00",12.2781,"Approved","OW286"
"2023-05-20 14:00",12.2808,"Approved","OW286"
"2023-05-20 15:00",12.2152,"Approved","OW286"
"2023-05-20 16:00",12.1765,"Approved","OW286"
"2023-05-20 17:00",12.2538,"Approved","OW286"
"2023-05-20 18:00",12.264,"Approved","OW286"
"2023-05-20 19:00",12.2693,"Approved","OW286"
"2023-05-20 20:00",12.2753,"Approved","OW286"
"2023-05-20 21:00",12.2807,"Approved","OW286"
"2023-05-20 22:00",12.2853,"Approved","OW286"
"2023-05-20 23:00",12.2899,"Approved","OW286"
"2023-05-21 00:00",12.2932,"Approved","OW286"
"2023-05-21 01:00",12.2967,"Approved","OW286"
"2023-05-21 02:00",12.2998,"Approved","OW286"
"2023-05-21 03:00",12.2231,"Approved","OW286"
"2023-05-21 04:00",12.1932,"Approved","OW286"
"2023-05-21 05:00",12.1736,"Approved","OW286"
"2023-05-21 06:00",12.158,"Approved","OW286"
"2023-05-21 07:00",12.242,"Approved","OW286"
"2023-05-21 08:00",12.251,"Approved","OW286"
"2023-05-21 09:00",12.2559,"Approved","OW286"
"2023-05-21 10:00",12.2595,"Approved","OW286"
"2023-05-21 11:00",12.263,"Approved","OW286"
"2023-05-21 12:00",12.2657,"Approved","OW286"
"2023-05-21 13:00",12.2703,"Approved","OW286"
"2023-05-21 14:00",12.2767,"Approved","OW286"
"2023-05-21 15:00",12.2826,"Approved","OW286"
"2023-05-21 16:00",12.1902,"Approved","OW286"
"2023-05-21 17:00",12.17,"Approved","OW286"
"2023-05-21 18:00",12.1503,"Approved","OW286"
"2023-05-21 19:00",12.1349,"Approved","OW286"
"2023-05-21 20:00",12.2047,"Approved","OW286"
"2023-05-21 21:00",12.2255,"Approved","OW286"
"2023-05-21 22:00",12.2333,"Approved","OW286"
"2023-05-21 23:00",12.237,"Approved","OW286"
"2023-05-22 00:00",12.2432,"Approved","OW286"
"2023-05-22 01:00",12.2475,"Approved","OW286"
"2023-05-22 02:00",12.2514,"Approved","OW286"
"2023-05-22 03:00",12.256,"Approved","OW286"
"2023-05-22 04:00",12.2606,"Approved","OW286"
"2023-05-22 05:00",12.263,"Approved","OW286"
"2023-05-22 06:00",12.2665,"Approved","OW286"
"2023-05-22 07:00",12.2698,"Approved","OW286"
"2023-05-22 08:00",12.1866,"Approved","OW286"
"2023-05-22 09:00",12.161,"Approved","OW286"
"2023-05-22 10:00",12.143,"Approved","OW286"
"2023-05-22 11:00",12.1297,"Approved","OW286"
"2023-05-22 12:00",12.1185,"Approved","OW286"
"2023-05-22 13:00",12.1863,"Approved","OW286"
"2023-05-22 14:00",12.2096,"Approved","OW286"
"2023-05-22 15:00",12.2182,"Approved","OW286"
"2023-05-22 16:00",12.2254,"Approved","OW286"
"2023-05-22 17:00",12.2311,"Approved","OW286"
"2023-05-22 18:00",12.2369,"Approved","OW286"
"2023-05-22 19:00",12.241,"Approved","OW286"
"2023-05-22 20:00",12.2456,"Approved","OW286"
"2023-05-22 21:00",12.2496,"Approved","OW286"
"2023-05-22 22:00",12.2537,"Approved","OW286"
"2023-05-22 23:00",12.2568,"Approved","OW286"
"2023-05-23 00:00",12.1547,"Approved","OW286"
"2023-05-23 01:00",12.1346,"Approved","OW286"
"2023-05-23 02:00",12.1177,"Approved","OW286"
"2023-05-23 03:00",12.1053,"Approved","OW286"
"2023-05-23 04:00",12.0927,"Approved","OW286"
"2023-05-23 05:00",12.1745,"Approved","OW286"
"2023-05-23 06:00",12.1891,"Approved","OW286"
"2023-05-23 07:00",12.1971,"Approved","OW286"
"2023-05-23 08:00",12.202,"Approved","OW286"
"2023-05-23 09:00",12.2065,"Approved","OW286"
"2023-05-23 10:00",12.1232,"Approved","OW286"
"2023-05-23 11:00",12.0969,"Approved","OW286"
"2023-05-23 12:00",12.0824,"Approved","OW286"
"2023-05-23 13:00",12.0693,"Approved","OW286"
"2023-05-23 14:00",12.0982,"Approved","OW286"
"2023-05-23 15:00",12.1572,"Approved","OW286"
"2023-05-23 16:00",12.1641,"Approved","OW286"
"2023-05-23 17:00",12.171,"Approved","OW286"
"2023-05-23 18:00",12.1743,"Approved","OW286"
"2023-05-23 19:00",12.0779,"Approved","OW286"
"2023-05-23 20:00",12.0586,"Approved","OW286"
"2023-05-23 21:00",12.0441,"Approved","OW286"
"2023-05-23 22:00",12.0309,"Approved","OW286"
"2023-05-23 23:00",12.0186,"Approved","OW286"
"2023-05-24 00:00",12.0077,"Approved","OW286"
"2023-05-24 01:00",12.1023,"Approved","OW286"
"2023-05-24 02:00",12.1129,"Approved","OW286"
"2023-05-24 03:00",12.1199,"Approved","OW286"
"2023-05-24 04:00",12.028,"Approved","OW286"
"2023-05-24 05:00",12.0076,"Approved","OW286"
"2023-05-24 06:00",11.9948,"Approved","OW286"
"2023-05-24 07:00",11.9811,"Approved","OW286"
"2023-05-24 08:00",11.9708,"Approved","OW286"
"2023-05-24 09:00",11.9608,"Approved","OW286"
"2023-05-24 10:00",12.0376,"Approved","OW286"
"2023-05-24 11:00",12.0596,"Approved","OW286"
"2023-05-24 12:00",12.0678,"Approved","OW286"
"2023-05-24 13:00",12.0741,"Approved","OW286"
"2023-05-24 14:00",12.0797,"Approved","OW286"
"2023-05-24 15:00",12.0846,"Approved","OW286"
"2023-05-24 16:00",11.9796,"Approved","OW286"
"2023-05-24 17:00",11.9616,"Approved","OW286"
"2023-05-24 18:00",11.9488,"Approved","OW286"
"2023-05-24 19:00",11.9373,"Approved","OW286"
"2023-05-24 20:00",12.0382,"Approved","OW286"
"2023-05-24 21:00",12.0499,"Approved","OW286"
"2023-05-24 22:00",12.0594,"Approved","OW286"
"2023-05-24 23:00",12.0641,"Approved","OW286"
"2023-05-25 00:00",12.0709,"Approved","OW286"
"2023-05-25 01:00",12.0754,"Approved","OW286"
"2023-05-25 02:00",12.0796,"Approved","OW286"
"2023-05-25 03:00",12.0841,"Approved","OW286"
"2023-05-25 04:00",12.0884,"Approved","OW286"
"2023-05-25 05:00",12.0919,"Approved","OW286"
"2023-05-25 06:00",12.0173,"Approved","OW286"
"2023-05-25 07:00",11.9825,"Approved","OW286"
"2023-05-25 08:00",11.9642,"Approved","OW286"
"2023-05-25 09:00",12.0562,"Approved","OW286"
"2023-05-25 10:00",12.0639,"Approved","OW286"
"2023-05-25 11:00",12.0252,"Approved","OW286"
"2023-05-25 12:00",11.9605,"Approved","OW286"
"2023-05-25 13:00",12.0245,"Approved","OW286"
"2023-05-25 14:00",12.0472,"Approved","OW286"
"2023-05-25 15:00",12.0532,"Approved","OW286"
"2023-05-25 16:00",12.0587,"Approved","OW286"
"2023-05-25 17:00",12.0087,"Approved","OW286"
"2023-05-25 18:00",11.9555,"Approved","OW286"
"2023-05-25 19:00",11.9382,"Approved","OW286"
"2023-05-25 20:00",11.9264,"Approved","OW286"
"2023-05-25 21:00",12.0127,"Approved","OW286"
"2023-05-25 22:00",12.0266,"Approved","OW286"
"2023-05-25 23:00",12.0351,"Approved","OW286"
"2023-05-26 00:00",12.0417,"Approved","OW286"
"2023-05-26 01:00",12.047,"Approved","OW286"
"2023-05-26 02:00",12.0518,"Approved","OW286"
"2023-05-26 03:00",12.0573,"Approved","OW286"
"2023-05-26 04:00",12.0614,"Approved","OW286"
"2023-05-26 05:00",12.066,"Approved","OW286"
"2023-05-26 06:00",12.0696,"Approved","OW286"
"2023-05-26 07:00",12.0728,"Approved","OW286"
"2023-05-26 08:00",11.9806,"Approved","OW286"
"2023-05-26 09:00",11.9545,"Approved","OW286"
"2023-05-26 10:00",11.9871,"Approved","OW286"
"2023-05-26 11:00",12.0317,"Approved","OW286"
"2023-05-26 12:00",12.0407,"Approved","OW286"
"2023-05-26 13:00",11.9819,"Approved","OW286"
"2023-05-26 14:00",11.937,"Approved","OW286"
"2023-05-26 15:00",11.9206,"Approved","OW286"
"2023-05-26 16:00",12.0123,"Approved","OW286"
"2023-05-26 17:00",12.0214,"Approved","OW286"
"2023-05-26 18:00",12.0272,"Approved","OW286"
"2023-05-26 19:00",12.0345,"Approved","OW286"
"2023-05-26 20:00",12.0413,"Approved","OW286"
"2023-05-26 21:00",12.0491,"Approved","OW286"
"2023-05-26 22:00",12.0553,"Approved","OW286"
"2023-05-26 23:00",12.059,"Approved","OW286"
"2023-05-27 00:00",12.0627,"Approved","OW286"
"2023-05-27 01:00",12.0668,"Approved","OW286"
"2023-05-27 02:00",12.0712,"Approved","OW286"
"2023-05-27 03:00",12.0765,"Approved","OW286"
"2023-05-27 04:00",11.9739,"Approved","OW286"
"2023-05-27 05:00",11.9527,"Approved","OW286"
"2023-05-27 06:00",11.9666,"Approved","OW286"